Location: Unspecified
(35.3627°N, 0.0000°E)
Time: 02:24:54
(UTC+00:00)

Transit 2A - All Passes

Search period start: 04 April 2026 00:00
Search period end: 14 April 2026 00:00
Orbit: 591 x 953 km, 66.7° (Epoch: 29 March)

Date Brightness Start Highest point End Pass type
(mag) Time Alt. Az. Time Alt. Az. Time Alt. Az.
4 Apr - 01:19:46 10° SSW 01:26:05 90° E 01:32:22 10° NNE visible
4 Apr - 03:06:06 10° W 03:09:56 16° NW 03:13:44 10° N visible
4 Apr - 10:10:32 10° N 10:15:26 36° NE 10:19:53 10° ESE daylight
4 Apr - 11:54:10 10° NW 11:58:09 23° WSW 12:01:50 10° SSW daylight
5 Apr - 00:43:33 10° S 00:49:43 61° ESE 00:55:52 10° NE visible
5 Apr - 02:28:17 10° WSW 02:33:12 23° NW 02:38:03 10° N visible
5 Apr - 09:34:33 10° N 09:38:49 24° NE 09:42:45 10° ESE daylight
5 Apr - 11:17:12 10° NW 11:21:59 38° WSW 11:26:18 10° S daylight
6 Apr - 00:07:39 10° S 00:13:25 40° ESE 00:19:12 10° NE visible
6 Apr - 01:50:57 10° WSW 01:56:33 33° NW 02:02:07 10° N visible
6 Apr - 08:58:51 10° N 09:02:05 16° NE 09:05:08 10° E daylight
6 Apr - 10:40:33 10° NNW 10:45:43 63° WSW 10:50:22 10° SSE daylight
6 Apr - 23:32:07 10° SSE 23:37:11 26° ESE 23:42:17 10° NE visible
7 Apr - 01:13:57 10° SW 01:20:01 48° WNW 01:26:00 10° NNE visible
7 Apr - 08:24:06 10° NNE 08:25:16 11° NE 08:26:25 10° NE daylight
7 Apr - 10:04:05 10° NNW 10:09:22 79° ENE 10:14:04 10° SSE daylight
7 Apr - 22:57:10 10° SE 23:01:02 17° ESE 23:04:54 10° ENE visible
8 Apr - 00:37:15 10° SW 00:43:31 71° WNW 00:49:44 10° NNE visible
8 Apr - 02:24:56 10° WNW 02:27:38 13° NW 02:30:18 10° NNW visible
8 Apr - 09:27:47 10° NNW 09:32:53 48° ENE 09:37:29 10° SE daylight
8 Apr - 11:12:19 10° WNW 11:15:18 16° WSW 11:18:08 10° SW daylight
8 Apr - 22:24:22 10° ESE 22:24:56 10° E 22:25:29 10° E night (unlit)
9 Apr - 00:00:49 10° SSW 00:07:06 80° ESE 00:13:20 10° NNE visible
9 Apr - 01:46:37 10° W 01:50:50 18° NW 01:55:00 10° N visible
9 Apr - 08:51:40 10° N 08:56:20 31° NE 09:00:34 10° ESE daylight
9 Apr - 10:34:58 10° NW 10:39:11 26° WSW 10:43:04 10° SSW daylight
9 Apr - 23:24:40 10° S 23:30:45 53° ESE 23:36:48 10° NE visible
10 Apr - 01:08:57 10° WSW 01:14:07 26° NW 01:19:12 10° N visible
10 Apr - 08:15:46 10° N 08:19:40 20° NE 08:23:18 10° E daylight
10 Apr - 09:58:06 10° NW 10:02:58 44° WSW 10:07:23 10° S daylight
10 Apr - 22:48:53 10° S 22:54:29 35° ESE 23:00:03 10° NE visible
11 Apr - 00:31:43 10° WSW 00:37:30 37° WNW 00:43:11 10° N visible
11 Apr - 07:40:15 10° NNE 07:42:55 14° NE 07:45:27 10° ENE daylight
11 Apr - 09:21:30 10° NNW 09:26:41 75° WSW 09:31:19 10° SSE daylight
11 Apr - 22:13:29 10° SSE 22:18:16 23° ESE 22:23:00 10° NE visible
11 Apr - 23:54:48 10° SW 00:00:58 54° WNW 00:07:02 10° NNE visible
12 Apr - 08:45:06 10° NNW 08:50:17 67° ENE 08:54:56 10° SE daylight
12 Apr - 10:31:24 10° W 10:32:25 11° W 10:33:25 10° WSW daylight
12 Apr - 21:38:51 10° SE 21:42:06 15° ESE 21:45:21 10° ENE night (unlit)
12 Apr - 23:18:11 10° SSW 23:24:30 80° WNW 23:30:43 10° NNE visible
13 Apr - 01:05:12 10° WNW 01:08:28 14° NW 01:11:40 10° NNW visible
13 Apr - 08:08:51 10° NNW 08:13:47 41° ENE 08:18:14 10° SE daylight
13 Apr - 09:52:55 10° WNW 09:56:20 19° WSW 09:59:32 10° SSW daylight
13 Apr - 22:41:51 10° SSW 22:48:06 70° ESE 22:54:17 10° NNE visible
